Погода в Вожгоре

Россия / Архангельская область     64°32′11″N   48°27′14″E
темп.,
°C
ветер,
м/с
пор.,
м/с
влажн.,
%
обл.,
%
осадки,
мм/ч
давл.,
гПа
погр.,
м
21 апреля, ср
ср2100:00−1ююв11925 0.0 102818
03:00−1ююв139170 0.0 102843
06:00+1юв2582100 0.0 1027119
09:00+7ююв366229 0.0 1025477
12:00+10ююв5850100 0.0 10231209
15:00+11юв5949100 0.0 10211371
18:00+9юв51251100 0.0 1018529
21:00+8ююв51452100 0.0 1017691
22 апреля, чт
чт2200:00+6ююв51461100 0.0 10141134
03:00+4ююв61381100 0.0 10141085
06:00+3ююв51296100 0.3 1012885
09:00+3ююв51296100 0.4 1011864
12:00+3ю51296100 0.4 1011749
15:00+3ю41096100 0.9 1012863
18:00+3ю51090100 0.0 1013853
21:00+4ю51282100 0.0 1013982
23 апреля, пт
пт2300:00+4ю51386100 0.0 1012886
03:00+4ю51289100 0.3 1013823
06:00+5ююз51190100 0.6 1014868
09:00+6юз41082100 0.8 1016859
12:00+7юз397879 0.1 1017761
15:00+11юз4865100 0.2 10181231
18:00+10ю386767 0.0 1019342
21:00+8ююв31073100 0.0 1020260
24 апреля, сб
сб2400:00+7ююв3107457 0.0 1020341
03:00+4ююв3109057 0.0 1020267
06:00+6ююв4118669 0.0 1020402
09:00+9ююв5970100 0.0 1020619
12:00+11ю375936 0.0 1020884
15:00+13юв564272 0.0 10181810
18:00+11юв58535 0.0 10171144
21:00+8юв4856100 0.0 1018415
25 апреля, вс
вс2500:00+7вюв3866100 0.0 1016354
03:00+6в3972100 0.0 1014354
06:00+6в31070100 0.0 1013564
09:00+7вюв5878100 0.0 1011968
12:00+5в4896100 1.3 1009921
15:00+5вюв4895100 2.2 1008825
18:00+5вюв31096100 1.1 10061059
21:00+5вюв2690100 1.3 1004222